| time (UTC) | temp C | wind direction | speed KPH | gust KPH | rain 1hr cm | rain 24hr cm | rain mn cm | humidity % | barometer mb |
| 20260506182705 | 12 | 317 | 1.6 | 9.7 | 0.08 | 2.08 | 2.03 | 97 | 1006.4 |
| 20260506182206 | 12 | 332 | 0.0 | 9.7 | 0.08 | 2.08 | 2.03 | 97 | 1006.2 |
| 20260506181705 | 12 | 316 | 3.2 | 9.7 | 0.05 | 2.06 | 2.01 | 97 | 1006.4 |
| 20260506181205 | 12 | 315 | 1.6 | 16.1 | 0.05 | 2.06 | 2.01 | 97 | 1006.4 |
| 20260506180705 | 12 | 270 | 6.4 | 14.5 | 0.03 | 2.03 | 1.98 | 96 | 1006.4 |
| 20260506180205 | 12 | 335 | 4.8 | 9.7 | 0.03 | 2.03 | 1.98 | 95 | 1006.3 |
| 20260506175206 | 12 | 284 | 3.2 | 9.7 | 0.00 | 2.01 | 1.96 | 94 | 1006.4 |
| 20260506174705 | 13 | 315 | 1.6 | 9.7 | 0.00 | 2.01 | 1.96 | 93 | 1006.4 |
| 20260506174205 | 13 | 349 | 4.8 | 16.1 | 0.00 | 2.01 | 1.96 | 93 | 1006.4 |
| 20260506173705 | 13 | 270 | 8.0 | 14.5 | 0.00 | 2.01 | 1.96 | 93 | 1006.4 |
| 20260506173206 | 13 | 20 | 3.2 | 14.5 | 0.00 | 2.01 | 1.96 | 92 | 1006.4 |
| 20260506172705 | 13 | 356 | 1.6 | 9.7 | 0.00 | 2.01 | 1.96 | 91 | 1006.4 |
| 20260506171205 | 13 | 0 | 0.0 | 9.7 | 0.00 | 2.01 | 1.96 | 91 | 1006.4 |
| 20260506170205 | 13 | 302 | 3.2 | 14.5 | 0.00 | 2.01 | 1.96 | 90 | 1006.1 |
| 20260506165705 | 13 | 331 | 4.8 | 22.5 | 0.00 | 2.01 | 1.96 | 90 | 1006.3 |
| 20260506164705 | 14 | 311 | 1.6 | 9.7 | 0.00 | 2.01 | 1.96 | 89 | 1006.4 |
| 20260506164206 | 14 | 270 | 3.2 | 14.5 | 0.00 | 2.01 | 1.96 | 89 | 1006.4 |
| 20260506163705 | 14 | 315 | 4.8 | 16.1 | 0.00 | 2.01 | 1.96 | 89 | 1006.3 |
| 20260506162705 | 14 | 333 | 3.2 | 14.5 | 0.00 | 2.01 | 1.96 | 90 | 1006.2 |
| 20260506162205 | 14 | 283 | 4.8 | 14.5 | 0.00 | 2.01 | 1.96 | 90 | 1006.4 |
| 20260506161705 | 14 | 5 | 3.2 | 16.1 | 0.00 | 2.01 | 1.96 | 90 | 1006.2 |
| 20260506161204 | 14 | 0 | 6.4 | 16.1 | 0.00 | 2.01 | 1.96 | 89 | 1006.4 |
| 20260506160705 | 14 | 340 | 9.7 | 16.1 | 0.00 | 2.01 | 1.96 | 89 | 1006.4 |
| 20260506160205 | 15 | 270 | 1.6 | 22.5 | 0.00 | 2.01 | 1.96 | 89 | 1006.4 |
| 20260506154705 | 15 | 279 | 9.7 | 25.7 | 0.00 | 2.01 | 1.96 | 87 | 1006.7 |
| 20260506153705 | 15 | 293 | 1.6 | 25.7 | 0.00 | 2.01 | 1.96 | 87 | 1006.4 |
| 20260506153205 | 15 | 226 | 8.0 | 22.5 | 0.00 | 2.01 | 1.96 | 87 | 1006.4 |
| 20260506152705 | 15 | 331 | 11.3 | 16.1 | 0.00 | 2.01 | 1.96 | 86 | 1006.7 |
| 20260506152205 | 15 | 287 | 4.8 | 22.5 | 0.00 | 2.01 | 1.96 | 86 | 1006.4 |
| 20260506151705 | 15 | 9 | 14.5 | 25.7 | 0.00 | 2.01 | 1.96 | 85 | 1006.7 |
| 20260506151205 | 15 | 19 | 4.8 | 25.7 | 0.00 | 2.01 | 1.96 | 85 | 1006.8 |
| 20260506150705 | 16 | 343 | 4.8 | 25.7 | 0.00 | 2.01 | 1.96 | 85 | 1006.4 |
| 20260506150205 | 15 | 4 | 9.7 | 16.1 | 0.00 | 2.01 | 1.96 | 85 | 1006.6 |
| 20260506145705 | 16 | 299 | 8.0 | 25.7 | 0.00 | 2.01 | 1.96 | 84 | 1006.8 |
| 20260506145204 | 16 | 298 | 8.0 | 22.5 | 0.00 | 2.01 | 1.96 | 84 | 1006.5 |
| 20260506144705 | 16 | 307 | 4.8 | 14.5 | 0.00 | 2.01 | 1.96 | 84 | 1006.4 |
| 20260506144205 | 16 | 354 | 6.4 | 22.5 | 0.00 | 2.01 | 1.96 | 84 | 1006.6 |
| 20260506143705 | 16 | 344 | 8.0 | 16.1 | 0.00 | 2.01 | 1.96 | 83 | 1006.4 |
| 20260506143205 | 16 | 315 | 9.7 | 16.1 | 0.00 | 2.01 | 1.96 | 82 | 1007.1 |
| 20260506142705 | 16 | 272 | 6.4 | 16.1 | 0.00 | 2.01 | 1.96 | 83 | 1006.7 |
| 20260506142205 | 16 | 315 | 9.7 | 22.5 | 0.00 | 2.01 | 1.96 | 84 | 1006.8 |
| 20260506141204 | 17 | 314 | 8.0 | 22.5 | 0.00 | 2.01 | 1.96 | 83 | 1006.8 |
| 20260506135705 | 16 | 305 | 3.2 | 14.5 | 0.00 | 2.01 | 1.96 | 83 | 1006.8 |
| 20260506135206 | 16 | 336 | 4.8 | 16.1 | 0.00 | 2.01 | 1.96 | 84 | 1006.4 |
| 20260506134705 | 16 | 336 | 4.8 | 16.1 | 0.00 | 2.01 | 1.96 | 83 | 1006.8 |
| 20260506134205 | 16 | 263 | 3.2 | 22.5 | 0.00 | 2.01 | 1.96 | 83 | 1006.6 |
| 20260506132704 | 16 | 315 | 8.0 | 16.1 | 0.00 | 2.01 | 1.96 | 87 | 1006.4 |
| 20260506132205 | 15 | 309 | 8.0 | 16.1 | 0.00 | 2.01 | 1.96 | 89 | 1006.4 |
| 20260506131705 | 15 | 323 | 4.8 | 14.5 | 0.00 | 2.01 | 1.96 | 89 | 1006.4 |
| 20260506131205 | 15 | 272 | 3.2 | 16.1 | 0.00 | 2.01 | 1.96 | 89 | 1006.4 |
| 20260506130705 | 15 | 300 | 6.4 | 16.1 | 0.00 | 2.01 | 1.96 | 88 | 1006.5 |
| 20260506125204 | 17 | 23 | 1.6 | 14.5 | 0.00 | 2.01 | 1.96 | 84 | 1006.5 |
| 20260506123705 | 15 | 347 | 8.0 | 16.1 | 0.00 | 2.01 | 1.96 | 89 | 1006.4 |
| 20260506122705 | 15 | 341 | 3.2 | 9.7 | 0.00 | 2.01 | 1.96 | 91 | 1006.4 |
| 20260506122204 | 15 | 310 | 8.0 | 14.5 | 0.00 | 2.01 | 1.96 | 90 | 1006.4 |
| 20260506121704 | 15 | 17 | 6.4 | 14.5 | 0.00 | 2.01 | 1.96 | 91 | 1006.1 |
| 20260506120704 | 15 | 5 | 4.8 | 14.5 | 0.00 | 2.01 | 1.96 | 90 | 1006.1 |
| 20260506120205 | 16 | 344 | 1.6 | 9.7 | 0.00 | 2.01 | 1.96 | 89 | 1006.1 |
| 20260506115704 | 16 | 335 | 1.6 | 9.7 | 0.00 | 2.01 | 1.96 | 91 | 1005.8 |
| 20260506114705 | 15 | 23 | 4.8 | 14.5 | 0.00 | 2.01 | 1.96 | 95 | 1005.8 |
| 20260506114204 | 15 | 23 | 4.8 | 9.7 | 0.00 | 2.01 | 1.96 | 96 | 1005.8 |
| 20260506113705 | 15 | 23 | 4.8 | 16.1 | 0.00 | 2.01 | 1.96 | 96 | 1005.8 |
| 20260506113205 | 15 | 23 | 4.8 | 9.7 | 0.00 | 2.01 | 1.96 | 96 | 1005.7 |
| 20260506112704 | 15 | 40 | 8.0 | 9.7 | 0.00 | 2.01 | 1.96 | 95 | 1005.8 |
| 20260506112205 | 15 | 23 | 0.0 | 4.8 | 0.00 | 2.01 | 1.96 | 94 | 1005.9 |
| 20260506111706 | 14 | 23 | 1.6 | 9.7 | 0.00 | 2.01 | 1.96 | 93 | 1005.8 |
| 20260506111205 | 15 | 23 | 0.0 | 9.7 | 0.00 | 2.01 | 1.96 | 94 | 1005.8 |
| 20260506110704 | 14 | 42 | 4.8 | 9.7 | 0.00 | 2.01 | 1.96 | 92 | 1005.8 |
| 20260506110205 | 15 | 23 | 1.6 | 9.7 | 0.00 | 2.01 | 1.96 | 90 | 1005.9 |
| 20260506105204 | 15 | 23 | 3.2 | 9.7 | 0.00 | 2.01 | 1.96 | 88 | 1006.1 |
| 20260506104205 | 15 | 23 | 1.6 | 9.7 | 0.00 | 2.01 | 1.96 | 89 | 1005.8 |
| 20260506103704 | 15 | 23 | 1.6 | 4.8 | 0.00 | 2.01 | 1.96 | 89 | 1005.7 |
| 20260506103205 | 15 | 23 | 0.0 | 9.7 | 0.00 | 2.01 | 1.96 | 91 | 1005.8 |
| 20260506102705 | 14 | 23 | 1.6 | 9.7 | 0.00 | 2.01 | 1.96 | 90 | 1005.8 |
| 20260506101704 | 15 | 344 | 0.0 | 4.8 | 0.00 | 2.01 | 1.96 | 88 | 1005.8 |
| 20260506101205 | 15 | 315 | 0.0 | 0.0 | 0.00 | 2.01 | 1.96 | 87 | 1005.8 |
| 20260506100704 | 15 | 315 | 0.0 | 9.7 | 0.00 | 2.01 | 1.96 | 90 | 1005.5 |
| 20260506100204 | 15 | 345 | 3.2 | 9.7 | 0.00 | 2.01 | 1.96 | 90 | 1005.4 |
| 20260506095708 | 14 | 257 | 1.6 | 9.7 | 0.00 | 2.01 | 1.96 | 91 | 1005.7 |
| 20260506095208 | 14 | 203 | 4.8 | 9.7 | 0.00 | 2.01 | 1.96 | 91 | 1005.8 |
| 20260506094207 | 14 | 23 | 0.0 | 4.8 | 0.00 | 2.01 | 1.96 | 94 | 1005.4 |
| 20260506093707 | 13 | 23 | 0.0 | 4.8 | 0.00 | 2.01 | 1.96 | 96 | 1005.4 |
| 20260506093207 | 13 | 23 | 0.0 | 4.8 | 0.00 | 2.01 | 1.96 | 96 | 1005.4 |
| 20260506092708 | 13 | 23 | 1.6 | 4.8 | 0.00 | 2.01 | 1.96 | 97 | 1005.7 |
| 20260506092208 | 13 | 23 | 1.6 | 4.8 | 0.00 | 2.01 | 1.96 | 98 | 1005.6 |
| 20260506091708 | 13 | 23 | 0.0 | 9.7 | 0.00 | 2.01 | 1.96 | 99 | 1005.4 |
| 20260506091208 | 13 | 23 | 3.2 | 9.7 | 0.00 | 2.01 | 1.96 | 99 | 1005.4 |
| 20260506090708 | 12 | 347 | 3.2 | 9.7 | 0.00 | 2.01 | 1.96 | 99 | 1005.4 |
| 20260506090207 | 12 | 23 | 0.0 | 4.8 | 0.00 | 2.01 | 1.96 | 99 | 1005.4 |
| 20260506085708 | 13 | 23 | 0.0 | 9.7 | 0.00 | 2.01 | 1.96 | 99 | 1005.1 |
| 20260506085207 | 12 | 23 | 1.6 | 9.7 | 0.00 | 2.01 | 1.96 | 99 | 1005.4 |
| 20260506084708 | 12 | 343 | 4.8 | 16.1 | 0.00 | 2.01 | 1.96 | 99 | 1005.4 |
| 20260506084208 | 12 | 348 | 1.6 | 14.5 | 0.00 | 2.01 | 1.96 | 99 | 1005.4 |
| 20260506083708 | 12 | 14 | 1.6 | 9.7 | 0.00 | 2.01 | 1.96 | 99 | 1005.3 |
| 20260506083207 | 12 | 338 | 0.0 | 9.7 | 0.00 | 2.01 | 1.96 | 99 | 1005.1 |
| 20260506082708 | 12 | 332 | 0.0 | 9.7 | 0.00 | 2.01 | 1.96 | 99 | 1005.3 |
| 20260506082208 | 12 | 11 | 0.0 | 4.8 | 0.00 | 2.01 | 1.96 | 99 | 1005.1 |
| 20260506081707 | 12 | 324 | 1.6 | 4.8 | 0.00 | 2.01 | 1.96 | 99 | 1005.2 |
| 20260506080208 | 12 | 23 | 3.2 | 14.5 | 0.00 | 2.01 | 1.96 | 99 | 1005.2 |
| 20260506073207 | 12 | 315 | 0.0 | 4.8 | 0.00 | 2.03 | 1.96 | 99 | 1004.7 |
| 20260506071707 | 12 | 329 | 3.2 | 14.5 | 0.03 | 2.03 | 1.96 | 99 | 1004.7 |
| 20260506070708 | 12 | 0 | 0.0 | 4.8 | 0.08 | 2.03 | 1.96 | 99 | 1005.0 |
| 20260506070207 | 12 | 0 | 1.6 | 9.7 | 0.13 | 2.03 | 1.96 | 99 | 1004.7 |
| 20260506062208 | 12 | 0 | 0.0 | 4.8 | 0.18 | 2.01 | 1.93 | 99 | 1004.7 |
| 20260506061708 | 11 | 0 | 0.0 | 4.8 | 0.18 | 2.01 | 1.93 | 99 | 1004.7 |
| 20260506061208 | 11 | 0 | 1.6 | 4.8 | 0.13 | 1.96 | 1.88 | 99 | 1004.4 |
| 20260506060708 | 11 | 0 | 1.6 | 9.7 | 0.18 | 1.96 | 1.88 | 99 | 1004.3 |
| 20260506051207 | 11 | 295 | 4.8 | 14.5 | 0.15 | 1.88 | 1.75 | 99 | 1003.7 |
| 20260506050707 | 11 | 351 | 4.8 | 14.5 | 0.10 | 1.83 | 1.70 | 99 | 1003.9 |
| 20260506050207 | 11 | 330 | 1.6 | 14.5 | 0.15 | 1.85 | 1.70 | 99 | 1003.7 |
| 20260506044707 | 11 | 23 | 3.2 | 14.5 | 0.13 | 1.80 | 1.65 | 99 | 1003.9 |
| 20260506044207 | 11 | 0 | 1.6 | 9.7 | 0.15 | 1.80 | 1.65 | 99 | 1004.1 |
| 20260506043708 | 11 | 338 | 1.6 | 4.8 | 0.15 | 1.78 | 1.63 | 99 | 1003.7 |
| 20260506043208 | 11 | 338 | 1.6 | 9.7 | 0.18 | 1.78 | 1.63 | 99 | 1003.7 |
| 20260506042707 | 11 | 10 | 1.6 | 9.7 | 0.18 | 1.78 | 1.63 | 99 | 1003.9 |
| 20260506041706 | 11 | 23 | 0.0 | 14.5 | 0.23 | 1.75 | 1.60 | 99 | 1004.1 |
| 20260506041207 | 11 | 278 | 1.6 | 14.5 | 0.23 | 1.75 | 1.60 | 99 | 1003.8 |
| 20260506040708 | 11 | 0 | 0.0 | 16.1 | 0.23 | 1.75 | 1.60 | 99 | 1003.9 |
| 20260506040208 | 11 | 254 | 3.2 | 14.5 | 0.18 | 1.70 | 1.55 | 99 | 1003.8 |
| 20260506035707 | 11 | 317 | 0.0 | 9.7 | 0.18 | 1.70 | 1.55 | 99 | 1004.1 |
| 20260506034707 | 11 | 2 | 1.6 | 14.5 | 0.18 | 1.68 | 1.52 | 99 | 1003.9 |
| 20260506034209 | 12 | 353 | 1.6 | 14.5 | 0.15 | 1.65 | 1.50 | 99 | 1004.1 |
| 20260506032208 | 12 | 332 | 1.6 | 9.7 | 0.05 | 1.55 | 1.37 | 99 | 1004.4 |
| 20260506031707 | 12 | 340 | 1.6 | 9.7 | 0.05 | 1.55 | 1.37 | 99 | 1004.4 |
| 20260506031207 | 12 | 324 | 3.2 | 14.5 | 0.08 | 1.55 | 1.37 | 99 | 1004.2 |
| 20260506030707 | 12 | 315 | 3.2 | 22.5 | 0.08 | 1.55 | 1.37 | 99 | 1004.1 |
| 20260506030207 | 12 | 318 | 3.2 | 16.1 | 0.08 | 1.55 | 1.37 | 99 | 1004.4 |
| 20260506025207 | 12 | 357 | 1.6 | 14.5 | 0.08 | 1.52 | 1.35 | 99 | 1004.4 |
| 20260506024207 | 12 | 23 | 1.6 | 14.5 | 0.08 | 1.52 | 1.35 | 99 | 1004.4 |
| 20260506023706 | 12 | 311 | 1.6 | 14.5 | 0.05 | 1.50 | 1.32 | 99 | 1004.4 |
| 20260506022707 | 12 | 315 | 4.8 | 16.1 | 0.05 | 1.50 | 1.32 | 99 | 1004.7 |
| 20260506022208 | 12 | 359 | 1.6 | 14.5 | 0.10 | 1.50 | 1.32 | 99 | 1004.7 |
| 20260506021707 | 12 | 356 | 4.8 | 14.5 | 0.13 | 1.50 | 1.32 | 99 | 1004.7 |
| 20260506021206 | 12 | 348 | 4.8 | 9.7 | 0.10 | 1.47 | 1.30 | 99 | 1004.7 |
| 20260506020707 | 12 | 314 | 3.2 | 9.7 | 0.13 | 1.47 | 1.30 | 99 | 1004.7 |
| 20260506020207 | 12 | 270 | 4.8 | 14.5 | 0.18 | 1.47 | 1.30 | 99 | 1004.7 |
| 20260506015707 | 12 | 293 | 3.2 | 16.1 | 0.18 | 1.47 | 1.30 | 99 | 1004.7 |
| 20260506015207 | 12 | 338 | 4.8 | 22.5 | 0.18 | 1.45 | 1.27 | 99 | 1004.7 |
| 20260506014706 | 12 | 67 | 3.2 | 16.1 | 0.23 | 1.45 | 1.27 | 99 | 1004.8 |
| 20260506014206 | 12 | 346 | 3.2 | 9.7 | 0.25 | 1.45 | 1.27 | 99 | 1005.1 |
| 20260506013707 | 12 | 268 | 1.6 | 9.7 | 0.30 | 1.45 | 1.27 | 99 | 1005.1 |
| 20260506013206 | 12 | 305 | 4.8 | 14.5 | 0.33 | 1.45 | 1.27 | 99 | 1005.1 |
| 20260506012707 | 12 | 225 | 1.6 | 9.7 | 0.33 | 1.45 | 1.27 | 99 | 1005.4 |
| 20260506012207 | 12 | 338 | 4.8 | 16.1 | 0.33 | 1.40 | 1.22 | 99 | 1005.1 |
| 20260506011706 | 12 | 315 | 1.6 | 9.7 | 0.33 | 1.37 | 1.19 | 99 | 1005.1 |
| 20260506011207 | 12 | 68 | 3.2 | 16.1 | 0.36 | 1.37 | 1.19 | 99 | 1005.1 |
| 20260506010706 | 12 | 273 | 0.0 | 9.7 | 0.36 | 1.35 | 1.17 | 99 | 1005.1 |
| 20260506010207 | 12 | 23 | 3.2 | 9.7 | 0.33 | 1.30 | 1.12 | 99 | 1005.2 |
| 20260506005207 | 12 | 18 | 4.8 | 9.7 | 0.38 | 1.27 | 1.09 | 99 | 1005.4 |
| 20260506004708 | 12 | 317 | 4.8 | 16.1 | 0.36 | 1.22 | 1.04 | 99 | 1005.4 |
| 20260506004207 | 13 | 293 | 4.8 | 16.1 | 0.36 | 1.19 | 1.02 | 99 | 1005.4 |
| 20260506003706 | 13 | 274 | 4.8 | 16.1 | 0.33 | 1.14 | 0.97 | 99 | 1005.2 |
| 20260506003207 | 13 | 315 | 3.2 | 9.7 | 0.33 | 1.12 | 0.94 | 99 | 1005.4 |
| 20260506002707 | 13 | 315 | 4.8 | 14.5 | 0.33 | 1.12 | 0.94 | 99 | 1005.8 |
| 20260506001707 | 13 | 339 | 4.8 | 16.1 | 0.33 | 1.04 | 0.86 | 99 | 1005.4 |
| 20260506001207 | 13 | 299 | 6.4 | 16.1 | 0.33 | 1.02 | 0.84 | 99 | 1005.8 |
| 20260506000707 | 13 | 252 | 1.6 | 9.7 | 0.33 | 0.99 | 0.81 | 99 | 1005.5 |
| 20260505235706 | 13 | 288 | 0.0 | 4.8 | 0.38 | 0.94 | 0.76 | 99 | 1005.8 |
| 20260505235206 | 13 | 293 | 0.0 | 9.7 | 0.38 | 0.89 | 0.71 | 99 | 1005.8 |
| 20260505234706 | 13 | 273 | 4.8 | 14.5 | 0.41 | 0.86 | 0.69 | 99 | 1005.8 |
| 20260505234207 | 13 | 11 | 1.6 | 4.8 | 0.43 | 0.84 | 0.66 | 99 | 1005.8 |
| 20260505233707 | 13 | 32 | 1.6 | 9.7 | 0.48 | 0.81 | 0.64 | 99 | 1006.1 |
| 20260505233207 | 13 | 0 | 0.0 | 4.8 | 0.51 | 0.79 | 0.61 | 99 | 1005.8 |
| 20260505232707 | 13 | 6 | 4.8 | 9.7 | 0.58 | 0.79 | 0.61 | 99 | 1006.1 |
| 20260505232206 | 13 | 345 | 1.6 | 9.7 | 0.53 | 0.74 | 0.56 | 99 | 1006.1 |
| 20260505231706 | 13 | 43 | 3.2 | 9.7 | 0.51 | 0.71 | 0.53 | 99 | 1006.1 |
| 20260505230706 | 13 | 345 | 1.6 | 14.5 | 0.48 | 0.66 | 0.48 | 99 | 1006.1 |
| 20260505230207 | 13 | 338 | 1.6 | 9.7 | 0.46 | 0.64 | 0.46 | 99 | 1006.3 |
| 20260505225706 | 13 | 315 | 1.6 | 16.1 | 0.23 | 0.56 | 0.38 | 99 | 1006.4 |
| 20260505224706 | 13 | 12 | 0.0 | 4.8 | 0.15 | 0.46 | 0.28 | 99 | 1006.6 |
| 20260505224207 | 13 | 17 | 1.6 | 22.5 | 0.10 | 0.41 | 0.23 | 99 | 1006.5 |
| 20260505223706 | 13 | 41 | 4.8 | 14.5 | 0.03 | 0.33 | 0.15 | 99 | 1006.4 |
| 20260505223206 | 13 | 354 | 4.8 | 14.5 | 0.15 | 0.28 | 0.10 | 99 | 1006.5 |
| 20260505222706 | 13 | 35 | 1.6 | 9.7 | 0.08 | 0.20 | 0.03 | 98 | 1006.6 |
| 20260505222208 | 13 | 342 | 1.6 | 9.7 | 0.08 | 0.20 | 0.03 | 98 | 1006.4 |
| 20260505221706 | 13 | 23 | 3.2 | 14.5 | 0.08 | 0.20 | 0.03 | 98 | 1006.7 |
| 20260505221206 | 13 | 346 | 1.6 | 9.7 | 0.05 | 0.18 | 0.00 | 98 | 1006.6 |
| 20260505220706 | 13 | 338 | 1.6 | 9.7 | 0.05 | 0.18 | 0.00 | 98 | 1006.8 |
| 20260505220206 | 13 | 338 | 1.6 | 9.7 | 0.05 | 0.18 | 0.00 | 98 | 1007.1 |
| 20260505215208 | 14 | 0 | 1.6 | 4.8 | 0.03 | 0.15 | 0.15 | 97 | 1006.9 |
| 20260505214706 | 14 | 338 | 0.0 | 4.8 | 0.00 | 0.13 | 0.13 | 97 | 1007.4 |
| 20260505214206 | 14 | 338 | 1.6 | 4.8 | 0.00 | 0.13 | 0.13 | 96 | 1007.1 |
| 20260505213706 | 14 | 338 | 0.0 | 4.8 | 0.00 | 0.13 | 0.13 | 96 | 1007.5 |
| 20260505213205 | 14 | 338 | 0.0 | 4.8 | 0.00 | 0.13 | 0.13 | 96 | 1007.1 |
| 20260505212707 | 14 | 338 | 1.6 | 9.7 | 0.00 | 0.13 | 0.13 | 96 | 1007.1 |
| 20260505212206 | 14 | 23 | 0.0 | 9.7 | 0.00 | 0.13 | 0.13 | 95 | 1007.4 |
| 20260505211706 | 14 | 338 | 0.0 | 9.7 | 0.00 | 0.13 | 0.13 | 95 | 1007.1 |
| 20260505211206 | 14 | 338 | 3.2 | 16.1 | 0.00 | 0.13 | 0.13 | 95 | 1007.1 |
| 20260505210206 | 15 | 338 | 3.2 | 14.5 | 0.00 | 0.13 | 0.13 | 93 | 1006.8 |
| 20260505205705 | 15 | 0 | 1.6 | 16.1 | 0.00 | 0.13 | 0.13 | 93 | 1007.1 |
| 20260505205206 | 15 | 338 | 3.2 | 22.5 | 0.00 | 0.13 | 0.13 | 92 | 1006.8 |
| 20260505204206 | 15 | 342 | 8.0 | 22.5 | 0.00 | 0.13 | 0.13 | 91 | 1006.9 |
| 20260505203206 | 15 | 357 | 1.6 | 14.5 | 0.00 | 0.13 | 0.13 | 91 | 1006.4 |
| 20260505202206 | 15 | 351 | 8.0 | 16.1 | 0.00 | 0.13 | 0.13 | 91 | 1007.0 |
| 20260505201706 | 15 | 0 | 4.8 | 16.1 | 0.00 | 0.13 | 0.13 | 91 | 1006.8 |
| 20260505201206 | 15 | 2 | 8.0 | 16.1 | 0.00 | 0.13 | 0.13 | 90 | 1006.8 |
| 20260505200706 | 15 | 318 | 9.7 | 25.7 | 0.00 | 0.13 | 0.13 | 90 | 1006.8 |
| 20260505200206 | 15 | 347 | 8.0 | 22.5 | 0.00 | 0.13 | 0.13 | 90 | 1007.3 |
| 20260505195206 | 15 | 23 | 8.0 | 25.7 | 0.00 | 0.13 | 0.13 | 89 | 1007.1 |
| 20260505194706 | 15 | 325 | 3.2 | 14.5 | 0.00 | 0.13 | 0.13 | 89 | 1007.1 |
| 20260505194205 | 15 | 353 | 3.2 | 9.7 | 0.00 | 0.13 | 0.13 | 89 | 1007.3 |
| 20260505193706 | 16 | 338 | 4.8 | 14.5 | 0.00 | 0.13 | 0.13 | 88 | 1007.2 |
| 20260505193206 | 16 | 338 | 3.2 | 14.5 | 0.00 | 0.13 | 0.13 | 88 | 1007.1 |
| 20260505192705 | 16 | 23 | 4.8 | 14.5 | 0.00 | 0.13 | 0.13 | 88 | 1007.1 |
| 20260505192206 | 16 | 7 | 8.0 | 14.5 | 0.00 | 0.13 | 0.13 | 87 | 1007.2 |
| 20260505191705 | 16 | 0 | 3.2 | 9.7 | 0.00 | 0.13 | 0.13 | 87 | 1007.1 |
| 20260505191206 | 16 | 338 | 4.8 | 14.5 | 0.00 | 0.13 | 0.13 | 87 | 1007.5 |
| 20260505190706 | 16 | 320 | 3.2 | 9.7 | 0.00 | 0.13 | 0.13 | 87 | 1007.2 |
| 20260505190206 | 16 | 0 | 4.8 | 9.7 | 0.00 | 0.13 | 0.13 | 86 | 1007.8 |
| 20260505185707 | 16 | 0 | 1.6 | 14.5 | 0.00 | 0.13 | 0.13 | 86 | 1007.5 |
| 20260505185206 | 16 | 315 | 3.2 | 22.5 | 0.00 | 0.13 | 0.13 | 86 | 1007.5 |
| 20260505184205 | 16 | 336 | 4.8 | 14.5 | 0.00 | 0.13 | 0.13 | 85 | 1007.5 |
| 20260505183706 | 16 | 13 | 4.8 | 14.5 | 0.00 | 0.13 | 0.13 | 85 | 1007.6 |
| 20260505183206 | 16 | 0 | 4.8 | 14.5 | 0.00 | 0.13 | 0.13 | 85 | 1007.8 |